Time,TemperatureF,DewpointF,PressureIn,WindDirection,WindDirectionDegrees,WindSpeedMPH,WindSpeedGustMPH,Humidity,HourlyPrecipIn,Conditions,Clouds,dailyrainin,SoftwareType,DateUTC
2013-01-06 00:01:00,8.5,4.9,30.62,SSE,164,0.0,0.0,85,0.00,CLR,,0.00,WeatherDisplay:10.37,2013-01-06 07:01:00,
2013-01-06 00:06:00,8.3,4.7,30.62,SSE,164,0.0,0.0,85,0.00,CLR,,0.00,WeatherDisplay:10.37,2013-01-06 07:06:00,
2013-01-06 00:11:00,8.1,4.5,30.61,SSE,164,0.0,0.0,85,0.00,CLR,,0.00,WeatherDisplay:10.37,2013-01-06 07:11:00,
2013-01-06 00:16:00,8.0,4.4,30.61,SSE,164,0.0,0.0,85,0.00,CLR,,0.00,WeatherDisplay:10.37,2013-01-06 07:16:00,
2013-01-06 00:21:00,7.8,4.5,30.61,SSE,164,0.0,0.0,86,0.00,CLR,,0.00,WeatherDisplay:10.37,2013-01-06 07:21:00,
2013-01-06 00:26:00,7.6,4.3,30.61,SSE,164,0.0,0.0,86,0.00,CLR,,0.00,WeatherDisplay:10.37,2013-01-06 07:26:00,
2013-01-06 00:31:00,7.4,4.1,30.61,SSE,164,0.0,0.0,86,0.00,CLR,,0.00,WeatherDisplay:10.37,2013-01-06 07:31:00,
2013-01-06 00:36:00,7.2,3.9,30.61,SSE,164,0.0,0.0,86,0.00,CLR,,0.00,WeatherDisplay:10.37,2013-01-06 07:36:00,
2013-01-06 00:41:00,7.2,4.1,30.61,SSE,164,0.0,0.0,87,0.00,CLR,,0.00,WeatherDisplay:10.37,2013-01-06 07:41:00,
2013-01-06 00:46:00,7.2,4.1,30.60,SSE,164,0.0,0.0,87,0.00,CLR,,0.00,WeatherDisplay:10.37,2013-01-06 07:46:00,
2013-01-06 00:51:00,7.2,4.4,30.60,SSE,164,0.0,0.0,88,0.00,CLR,,0.00,WeatherDisplay:10.37,2013-01-06 07:51:00,
2013-01-06 00:56:00,7.2,4.4,30.60,SSE,164,0.0,0.0,88,0.00,CLR,,0.00,WeatherDisplay:10.37,2013-01-06 07:56:00,
2013-01-06 01:01:00,7.2,4.4,30.60,SSE,164,0.0,0.0,88,0.00,CLR,,0.00,WeatherDisplay:10.37,2013-01-06 08:01:00,
2013-01-06 01:06:00,7.1,4.3,30.60,SSE,164,0.0,0.0,88,0.00,CLR,,0.00,WeatherDisplay:10.37,2013-01-06 08:06:00,
2013-01-06 01:11:00,7.1,4.3,30.60,SSE,164,0.0,0.0,88,0.00,CLR,,0.00,WeatherDisplay:10.37,2013-01-06 08:11:00,
2013-01-06 01:16:00,7.0,3.9,30.59,SSE,164,0.0,0.0,87,0.00,CLR,,0.00,WeatherDisplay:10.37,2013-01-06 08:16:00,
2013-01-06 01:21:00,6.9,3.8,30.59,SSE,164,0.0,0.0,87,0.00,CLR,,0.00,WeatherDisplay:10.37,2013-01-06 08:21:00,
2013-01-06 01:26:00,6.9,3.8,30.59,SE,134,0.0,0.0,87,0.00,CLR,,0.00,WeatherDisplay:10.37,2013-01-06 08:26:00,
2013-01-06 01:31:00,6.8,3.8,30.59,SE,134,0.0,0.0,87,0.00,CLR,,0.00,WeatherDisplay:10.37,2013-01-06 08:31:00,
2013-01-06 01:36:00,6.7,3.4,30.59,SSE,168,0.0,0.0,86,0.00,CLR,,0.00,WeatherDisplay:10.37,2013-01-06 08:36:00,
2013-01-06 01:41:00,6.6,3.6,30.58,SSE,168,0.0,0.0,87,0.00,CLR,,0.00,WeatherDisplay:10.37,2013-01-06 08:41:00,
2013-01-06 01:46:00,6.5,3.7,30.58,SSE,168,0.0,0.0,88,0.00,CLR,,0.00,WeatherDisplay:10.37,2013-01-06 08:46:00,
2013-01-06 01:51:00,6.6,3.8,30.59,South,174,0.0,0.0,88,0.00,CLR,,0.00,WeatherDisplay:10.37,2013-01-06 08:51:00,
2013-01-06 01:56:00,6.6,3.8,30.59,South,174,0.0,0.0,88,0.00,CLR,,0.00,WeatherDisplay:10.37,2013-01-06 08:56:00,
2013-01-06 02:01:00,6.6,3.8,30.59,South,174,0.0,0.0,88,0.00,CLR,,0.00,WeatherDisplay:10.37,2013-01-06 09:01:00,
2013-01-06 02:06:00,6.6,3.8,30.59,South,174,0.0,0.0,88,0.00,CLR,,0.00,WeatherDisplay:10.37,2013-01-06 09:06:00,
2013-01-06 02:11:00,6.6,3.8,30.59,South,174,0.0,0.0,88,0.00,CLR,,0.00,WeatherDisplay:10.37,2013-01-06 09:11:00,
2013-01-06 02:16:00,6.7,3.9,30.59,South,174,0.0,0.0,88,0.00,CLR,,0.00,WeatherDisplay:10.37,2013-01-06 09:16:00,
2013-01-06 02:21:00,6.8,4.2,30.59,South,174,0.0,0.0,89,0.00,CLR,,0.00,WeatherDisplay:10.37,2013-01-06 09:21:00,
2013-01-06 02:26:00,7.0,4.4,30.59,South,174,0.0,0.0,89,0.00,CLR,,0.00,WeatherDisplay:10.37,2013-01-06 09:26:00,
2013-01-06 02:31:00,7.0,4.4,30.59,South,174,0.0,0.0,89,0.00,CLR,,0.00,WeatherDisplay:10.37,2013-01-06 09:31:00,
2013-01-06 02:36:00,7.1,4.3,30.59,South,174,0.0,0.0,88,0.00,CLR,,0.00,WeatherDisplay:10.37,2013-01-06 09:36:00,
2013-01-06 02:41:00,7.1,4.5,30.59,South,174,0.0,0.0,89,0.00,CLR,,0.00,WeatherDisplay:10.37,2013-01-06 09:41:00,
2013-01-06 02:46:00,7.2,4.6,30.59,South,179,1.1,1.1,89,0.00,CLR,,0.00,WeatherDisplay:10.37,2013-01-06 09:46:00,
2013-01-06 02:51:00,7.2,4.6,30.58,South,179,0.0,0.0,89,0.00,CLR,,0.00,WeatherDisplay:10.37,2013-01-06 09:51:00,
2013-01-06 02:56:00,7.2,4.4,30.58,SE,139,0.0,0.0,88,0.00,CLR,,0.00,WeatherDisplay:10.37,2013-01-06 09:56:00,
2013-01-06 03:01:00,7.3,4.5,30.58,SE,139,0.0,0.0,88,0.00,CLR,,0.00,WeatherDisplay:10.37,2013-01-06 10:01:00,
2013-01-06 03:06:00,7.3,4.5,30.57,SE,139,0.0,0.0,88,0.00,CLR,,0.00,WeatherDisplay:10.37,2013-01-06 10:06:00,
2013-01-06 03:11:00,7.3,4.5,30.57,SE,139,0.0,0.0,88,0.00,CLR,,0.00,WeatherDisplay:10.37,2013-01-06 10:11:00,
2013-01-06 03:16:00,7.3,4.5,30.57,SE,139,0.0,0.0,88,0.00,CLR,,0.00,WeatherDisplay:10.37,2013-01-06 10:16:00,
2013-01-06 03:21:00,7.4,4.6,30.57,SE,139,0.0,0.0,88,0.00,CLR,,0.00,WeatherDisplay:10.37,2013-01-06 10:21:00,
2013-01-06 03:26:00,7.5,4.7,30.57,ESE,121,2.3,2.3,88,0.00,CLR,,0.00,WeatherDisplay:10.37,2013-01-06 10:26:00,
2013-01-06 03:31:00,7.5,4.7,30.56,ESE,121,0.0,0.0,88,0.00,CLR,,0.00,WeatherDisplay:10.37,2013-01-06 10:31:00,
2013-01-06 03:36:00,7.4,4.6,30.56,SW,225,1.1,1.1,88,0.00,CLR,,0.00,WeatherDisplay:10.37,2013-01-06 10:36:00,
2013-01-06 03:41:00,7.4,4.3,30.56,SW,225,0.0,0.0,87,0.00,CLR,,0.00,WeatherDisplay:10.37,2013-01-06 10:41:00,
2013-01-06 03:46:00,7.4,4.6,30.56,SW,225,0.0,0.0,88,0.00,CLR,,0.00,WeatherDisplay:10.37,2013-01-06 10:46:00,
2013-01-06 03:51:00,7.4,4.6,30.56,SW,225,0.0,0.0,88,0.00,CLR,,0.00,WeatherDisplay:10.37,2013-01-06 10:51:00,
2013-01-06 03:56:00,7.4,4.6,30.56,SW,225,0.0,0.0,88,0.00,CLR,,0.00,WeatherDisplay:10.37,2013-01-06 10:56:00,
2013-01-06 04:01:00,7.4,4.6,30.56,SW,225,0.0,0.0,88,0.00,CLR,,0.00,WeatherDisplay:10.37,2013-01-06 11:01:00,
2013-01-06 04:06:00,7.5,4.7,30.56,SW,225,0.0,0.0,88,0.00,CLR,,0.00,WeatherDisplay:10.37,2013-01-06 11:06:00,
2013-01-06 04:11:00,7.6,5.0,30.55,SW,225,0.0,0.0,89,0.00,CLR,,0.00,WeatherDisplay:10.37,2013-01-06 11:11:00,
2013-01-06 04:16:00,7.7,5.1,30.55,SW,225,0.0,0.0,89,0.00,CLR,,0.00,WeatherDisplay:10.37,2013-01-06 11:16:00,
2013-01-06 04:21:00,7.7,4.9,30.55,SW,225,0.0,0.0,88,0.00,CLR,,0.00,WeatherDisplay:10.37,2013-01-06 11:21:00,
2013-01-06 04:26:00,7.7,4.9,30.55,SW,225,0.0,0.0,88,0.00,CLR,,0.00,WeatherDisplay:10.37,2013-01-06 11:26:00,
2013-01-06 04:31:00,7.7,4.9,30.55,SW,225,0.0,0.0,88,0.00,CLR,,0.00,WeatherDisplay:10.37,2013-01-06 11:31:00,
2013-01-06 04:36:00,7.7,4.9,30.55,SW,225,0.0,0.0,88,0.00,CLR,,0.00,WeatherDisplay:10.37,2013-01-06 11:36:00,
2013-01-06 04:41:00,7.7,4.9,30.55,SW,225,1.1,1.1,88,0.00,CLR,,0.00,WeatherDisplay:10.37,2013-01-06 11:41:00,
2013-01-06 04:46:00,7.8,5.0,30.54,SW,225,1.1,1.1,88,0.00,CLR,,0.00,WeatherDisplay:10.37,2013-01-06 11:46:00,
2013-01-06 04:51:00,7.9,5.3,30.54,SW,225,0.0,0.0,89,0.00,CLR,,0.00,WeatherDisplay:10.37,2013-01-06 11:51:00,
2013-01-06 04:56:00,8.0,5.4,30.53,SW,225,0.0,0.0,89,0.00,CLR,,0.00,WeatherDisplay:10.37,2013-01-06 11:56:00,
2013-01-06 05:01:00,8.0,5.4,30.53,SW,225,0.0,0.0,89,0.00,CLR,,0.00,WeatherDisplay:10.37,2013-01-06 12:01:00,
2013-01-06 05:06:00,8.1,5.5,30.53,SE,137,1.0,0.0,89,0.00,CLR,,0.00,WeatherDisplay:10.37,2013-01-06 12:06:00,
2013-01-06 05:11:00,8.1,5.5,30.53,South,182,0.0,0.0,89,0.00,CLR,,0.00,WeatherDisplay:10.37,2013-01-06 12:11:00,
2013-01-06 05:16:00,8.2,5.6,30.53,South,182,1.1,1.1,89,0.00,CLR,,0.00,WeatherDisplay:10.37,2013-01-06 12:16:00,
2013-01-06 05:21:00,8.3,5.7,30.52,South,182,0.0,0.0,89,0.00,CLR,,0.00,WeatherDisplay:10.37,2013-01-06 12:21:00,
2013-01-06 05:26:00,8.4,5.8,30.53,South,182,0.0,0.0,89,0.00,CLR,,0.00,WeatherDisplay:10.37,2013-01-06 12:26:00,
2013-01-06 05:31:00,8.6,6.0,30.52,South,182,0.0,0.0,89,0.00,CLR,,0.00,WeatherDisplay:10.37,2013-01-06 12:31:00,
2013-01-06 05:36:00,8.7,6.1,30.52,South,182,0.0,0.0,89,0.00,CLR,,0.00,WeatherDisplay:10.37,2013-01-06 12:36:00,
2013-01-06 05:41:00,8.8,6.2,30.52,South,182,0.0,0.0,89,0.00,CLR,,0.00,WeatherDisplay:10.37,2013-01-06 12:41:00,
2013-01-06 05:46:00,8.9,6.3,30.51,SSW,194,1.1,0.0,89,0.00,CLR,,0.00,WeatherDisplay:10.37,2013-01-06 12:46:00,
2013-01-06 05:51:00,9.0,6.7,30.51,SSW,194,0.0,0.0,90,0.00,CLR,,0.00,WeatherDisplay:10.37,2013-01-06 12:51:00,
2013-01-06 05:56:00,9.3,7.2,30.51,SSW,207,2.3,2.3,91,0.00,CLR,,0.00,WeatherDisplay:10.37,2013-01-06 12:56:00,
2013-01-06 06:01:00,9.6,7.3,30.51,SSW,207,0.0,0.0,90,0.00,CLR,,0.00,WeatherDisplay:10.37,2013-01-06 13:01:00,
2013-01-06 06:06:00,9.8,7.5,30.51,SSW,207,0.0,0.0,90,0.00,CLR,,0.00,WeatherDisplay:10.37,2013-01-06 13:06:00,
2013-01-06 06:11:00,9.9,7.3,30.51,East,101,0.0,0.0,89,0.00,CLR,,0.00,WeatherDisplay:10.37,2013-01-06 13:11:00,
2013-01-06 06:16:00,10.0,7.4,30.50,East,101,0.0,0.0,89,0.00,CLR,,0.00,WeatherDisplay:10.37,2013-01-06 13:16:00,
2013-01-06 06:21:00,10.2,7.6,30.51,SE,142,1.1,1.1,89,0.00,CLR,,0.00,WeatherDisplay:10.37,2013-01-06 13:21:00,
2013-01-06 06:26:00,10.4,7.8,30.50,SE,142,0.0,0.0,89,0.00,CLR,,0.00,WeatherDisplay:10.37,2013-01-06 13:26:00,
2013-01-06 06:31:00,10.4,7.8,30.50,SE,142,0.0,0.0,89,0.00,CLR,,0.00,WeatherDisplay:10.37,2013-01-06 13:31:00,
2013-01-06 06:36:00,10.6,8.0,30.50,SE,142,0.0,0.0,89,0.00,CLR,,0.00,WeatherDisplay:10.37,2013-01-06 13:36:00,
2013-01-06 06:41:00,10.7,8.1,30.49,SE,142,0.0,0.0,89,0.00,CLR,,0.00,WeatherDisplay:10.37,2013-01-06 13:41:00,
2013-01-06 06:46:00,10.7,7.8,30.49,SE,142,0.0,0.0,88,0.00,CLR,,0.00,WeatherDisplay:10.37,2013-01-06 13:46:00,
2013-01-06 06:51:00,10.6,7.7,30.50,SSE,158,2.3,2.3,88,0.00,CLR,,0.00,WeatherDisplay:10.37,2013-01-06 13:51:00,
2013-01-06 06:56:00,10.6,7.7,30.49,East,87,2.3,2.3,88,0.00,CLR,,0.00,WeatherDisplay:10.37,2013-01-06 13:56:00,
2013-01-06 07:01:00,10.5,7.6,30.49,East,87,0.0,0.0,88,0.00,CLR,,0.00,WeatherDisplay:10.37,2013-01-06 14:01:00,
2013-01-06 07:06:00,10.5,7.6,30.49,East,87,0.0,0.0,88,0.00,CLR,,0.00,WeatherDisplay:10.37,2013-01-06 14:06:00,
2013-01-06 07:11:00,10.5,7.6,30.49,East,87,0.0,0.0,88,0.00,CLR,,0.00,WeatherDisplay:10.37,2013-01-06 14:11:00,
2013-01-06 07:16:00,10.6,7.7,30.48,East,87,0.0,0.0,88,0.00,CLR,,0.00,WeatherDisplay:10.37,2013-01-06 14:16:00,
2013-01-06 07:21:00,10.6,7.7,30.49,East,87,0.0,0.0,88,0.00,CLR,,0.00,WeatherDisplay:10.37,2013-01-06 14:21:00,
2013-01-06 07:26:00,10.7,8.1,30.48,SSE,151,2.3,2.3,89,0.00,CLR,,0.00,WeatherDisplay:10.37,2013-01-06 14:26:00,
2013-01-06 07:31:00,10.9,8.3,30.48,ESE,112,0.0,0.0,89,0.00,CLR,,0.00,WeatherDisplay:10.37,2013-01-06 14:31:00,
2013-01-06 07:36:00,11.0,8.1,30.47,ESE,106,1.1,0.0,88,0.00,CLR,,0.00,WeatherDisplay:10.37,2013-01-06 14:36:00,
2013-01-06 07:41:00,11.2,8.3,30.47,SW,224,1.1,0.0,88,0.00,CLR,,0.00,WeatherDisplay:10.37,2013-01-06 14:41:00,
2013-01-06 07:46:00,11.3,8.4,30.47,SW,224,0.0,0.0,88,0.00,CLR,,0.00,WeatherDisplay:10.37,2013-01-06 14:46:00,
2013-01-06 07:51:00,11.4,8.8,30.47,SW,224,0.0,0.0,89,0.00,CLR,,0.00,WeatherDisplay:10.37,2013-01-06 14:51:00,
2013-01-06 07:56:00,11.6,9.0,30.47,SW,224,0.0,0.0,89,0.00,CLR,,0.00,WeatherDisplay:10.37,2013-01-06 14:56:00,
2013-01-06 08:01:00,11.7,8.8,30.47,SW,224,0.0,0.0,88,0.00,CLR,,0.00,WeatherDisplay:10.37,2013-01-06 15:01:00,
2013-01-06 08:06:00,11.7,8.8,30.46,SW,224,0.0,0.0,88,0.00,CLR,,0.00,WeatherDisplay:10.37,2013-01-06 15:06:00,
2013-01-06 08:11:00,11.7,8.8,30.47,SW,224,0.0,0.0,88,0.00,CLR,,0.00,WeatherDisplay:10.37,2013-01-06 15:11:00,
2013-01-06 08:16:00,11.8,8.9,30.47,SW,224,0.0,0.0,88,0.00,CLR,,0.00,WeatherDisplay:10.37,2013-01-06 15:16:00,
2013-01-06 08:21:00,11.9,9.3,30.47,SW,224,0.0,0.0,89,0.00,CLR,,0.00,WeatherDisplay:10.37,2013-01-06 15:21:00,
2013-01-06 08:26:00,12.1,9.5,30.47,SW,224,0.0,0.0,89,0.00,CLR,,0.00,WeatherDisplay:10.37,2013-01-06 15:26:00,
2013-01-06 08:31:00,12.2,9.6,30.46,SW,224,0.0,0.0,89,0.00,CLR,,0.00,WeatherDisplay:10.37,2013-01-06 15:31:00,
2013-01-06 08:36:00,12.3,9.4,30.47,SW,224,1.0,0.0,88,0.00,CLR,,0.00,WeatherDisplay:10.37,2013-01-06 15:36:00,
2013-01-06 08:41:00,12.5,9.6,30.46,SW,224,0.0,0.0,88,0.00,CLR,,0.00,WeatherDisplay:10.37,2013-01-06 15:41:00,
2013-01-06 08:46:00,12.8,10.2,30.46,SW,224,2.3,2.3,89,0.00,CLR,,0.00,WeatherDisplay:10.37,2013-01-06 15:46:00,
2013-01-06 08:51:00,13.0,10.1,30.46,SW,224,0.0,0.0,88,0.00,CLR,,0.00,WeatherDisplay:10.37,2013-01-06 15:51:00,
2013-01-06 08:56:00,13.3,10.4,30.47,SW,224,0.0,0.2,88,0.00,CLR,,0.00,WeatherDisplay:10.37,2013-01-06 15:56:00,
2013-01-06 09:01:00,13.5,10.4,30.47,SW,224,0.0,0.0,87,0.00,CLR,,0.00,WeatherDisplay:10.37,2013-01-06 16:01:00,
2013-01-06 09:06:00,13.7,10.3,30.47,SW,224,0.0,0.0,86,0.00,CLR,,0.00,WeatherDisplay:10.37,2013-01-06 16:06:00,
2013-01-06 09:11:00,13.8,10.4,30.47,SW,224,0.0,0.0,86,0.00,CLR,,0.00,WeatherDisplay:10.37,2013-01-06 16:11:00,
2013-01-06 09:16:00,14.1,10.4,30.47,SW,224,0.0,0.0,85,0.00,CLR,,0.00,WeatherDisplay:10.37,2013-01-06 16:16:00,
2013-01-06 09:21:00,14.5,10.8,30.47,SW,224,0.0,0.0,85,0.00,CLR,,0.00,WeatherDisplay:10.37,2013-01-06 16:21:00,
2013-01-06 09:26:00,14.9,11.2,30.47,SW,224,0.0,0.0,85,0.00,CLR,,0.00,WeatherDisplay:10.37,2013-01-06 16:26:00,
2013-01-06 09:31:00,15.3,11.6,30.46,SW,224,0.0,0.0,85,0.00,CLR,,0.00,WeatherDisplay:10.37,2013-01-06 16:31:00,
2013-01-06 09:36:00,15.6,11.4,30.46,SW,224,0.0,0.0,83,0.00,CLR,,0.00,WeatherDisplay:10.37,2013-01-06 16:36:00,
2013-01-06 09:41:00,16.0,11.5,30.46,SE,144,1.1,0.0,82,0.00,CLR,,0.00,WeatherDisplay:10.37,2013-01-06 16:41:00,
2013-01-06 09:46:00,16.3,11.5,30.46,SE,144,0.0,0.0,81,0.00,CLR,,0.00,WeatherDisplay:10.37,2013-01-06 16:46:00,
2013-01-06 09:51:00,16.6,11.2,30.46,SE,144,0.0,0.0,79,0.00,CLR,,0.00,WeatherDisplay:10.37,2013-01-06 16:51:00,
2013-01-06 09:56:00,16.9,11.2,30.46,SE,144,1.1,0.0,78,0.00,CLR,,0.00,WeatherDisplay:10.37,2013-01-06 16:56:00,
2013-01-06 10:01:00,17.1,11.4,30.46,SE,144,0.0,0.0,78,0.00,CLR,,0.00,WeatherDisplay:10.37,2013-01-06 17:01:00,
2013-01-06 10:06:00,17.3,11.3,30.46,ENE,69,0.0,0.0,77,0.00,CLR,,0.00,WeatherDisplay:10.37,2013-01-06 17:06:00,
2013-01-06 10:11:00,17.6,11.3,30.47,ENE,76,2.3,2.3,76,0.00,CLR,,0.00,WeatherDisplay:10.37,2013-01-06 17:11:00,
2013-01-06 10:16:00,17.9,11.3,30.46,ENE,76,0.0,0.0,75,0.00,CLR,,0.00,WeatherDisplay:10.37,2013-01-06 17:16:00,
2013-01-06 10:21:00,18.4,11.8,30.46,ENE,76,0.0,0.0,75,0.00,CLR,,0.00,WeatherDisplay:10.37,2013-01-06 17:21:00,
2013-01-06 10:26:00,18.9,12.3,30.46,ENE,76,0.0,0.0,75,0.00,CLR,,0.00,WeatherDisplay:10.37,2013-01-06 17:26:00,
2013-01-06 10:31:00,19.5,12.6,30.46,East,98,0.0,0.0,74,0.00,CLR,,0.00,WeatherDisplay:10.37,2013-01-06 17:31:00,
2013-01-06 10:36:00,20.3,12.7,30.45,SE,131,0.0,0.0,72,0.00,CLR,,0.00,WeatherDisplay:10.37,2013-01-06 17:36:00,
2013-01-06 10:41:00,21.2,12.9,30.45,SE,140,2.3,2.3,70,0.00,CLR,,0.00,WeatherDisplay:10.37,2013-01-06 17:41:00,
2013-01-06 10:46:00,21.8,13.2,30.45,SE,140,0.0,0.0,69,0.00,CLR,,0.00,WeatherDisplay:10.37,2013-01-06 17:46:00,
2013-01-06 10:51:00,22.5,13.9,30.45,ESE,113,2.3,2.3,69,0.00,CLR,,0.00,WeatherDisplay:10.37,2013-01-06 17:51:00,
2013-01-06 10:56:00,22.9,14.2,30.44,ESE,113,1.1,0.0,69,0.00,CLR,,0.00,WeatherDisplay:10.37,2013-01-06 17:56:00,
2013-01-06 11:01:00,23.3,13.3,30.44,ESE,113,0.0,0.0,65,0.00,CLR,,0.00,WeatherDisplay:10.37,2013-01-06 18:01:00,
2013-01-06 11:06:00,23.6,13.2,30.44,East,90,1.1,0.0,64,0.00,CLR,,0.00,WeatherDisplay:10.37,2013-01-06 18:06:00,
2013-01-06 11:11:00,23.7,13.3,30.43,East,90,0.0,0.0,64,0.00,CLR,,0.00,WeatherDisplay:10.37,2013-01-06 18:11:00,
2013-01-06 11:16:00,24.0,13.2,30.42,East,90,0.0,0.0,63,0.00,CLR,,0.00,WeatherDisplay:10.37,2013-01-06 18:16:00,
2013-01-06 11:21:00,24.3,14.6,30.42,East,90,0.0,0.0,66,0.00,CLR,,0.00,WeatherDisplay:10.37,2013-01-06 18:21:00,
2013-01-06 11:26:00,24.7,13.9,30.42,East,80,1.1,1.1,63,0.00,CLR,,0.00,WeatherDisplay:10.37,2013-01-06 18:26:00,
2013-01-06 11:31:00,25.1,13.9,30.41,East,80,0.0,0.0,62,0.00,CLR,,0.00,WeatherDisplay:10.37,2013-01-06 18:31:00,
2013-01-06 11:36:00,25.4,13.8,30.41,SE,130,3.5,3.5,61,0.00,CLR,,0.00,WeatherDisplay:10.37,2013-01-06 18:36:00,
2013-01-06 11:41:00,25.8,13.8,30.40,SSW,192,3.5,3.5,60,0.00,CLR,,0.00,WeatherDisplay:10.37,2013-01-06 18:41:00,
2013-01-06 11:46:00,26.2,14.6,30.40,SSW,192,0.0,0.0,61,0.00,CLR,,0.00,WeatherDisplay:10.37,2013-01-06 18:46:00,
2013-01-06 11:51:00,26.7,15.4,30.39,SSW,192,1.1,0.0,62,0.00,CLR,,0.00,WeatherDisplay:10.37,2013-01-06 18:51:00,
2013-01-06 11:56:00,27.2,15.5,30.39,SSW,194,1.1,1.1,61,0.00,CLR,,0.00,WeatherDisplay:10.37,2013-01-06 18:56:00,
2013-01-06 12:01:00,27.6,15.1,30.38,SSW,210,2.3,2.3,59,0.00,CLR,,0.00,WeatherDisplay:10.37,2013-01-06 19:01:00,
2013-01-06 12:06:00,27.7,16.4,30.38,East,94,4.6,4.6,62,0.00,CLR,,0.00,WeatherDisplay:10.37,2013-01-06 19:06:00,
2013-01-06 12:11:00,27.5,15.0,30.38,NE,38,1.1,1.1,59,0.00,CLR,,0.00,WeatherDisplay:10.37,2013-01-06 19:11:00,
2013-01-06 12:16:00,27.4,15.7,30.37,NE,42,1.1,1.1,61,0.00,CLR,,0.00,WeatherDisplay:10.37,2013-01-06 19:16:00,
2013-01-06 12:21:00,27.5,15.8,30.37,NE,42,1.1,0.0,61,0.00,CLR,,0.00,WeatherDisplay:10.37,2013-01-06 19:21:00,
2013-01-06 12:26:00,27.4,14.1,30.37,NE,47,2.3,2.3,57,0.00,CLR,,0.00,WeatherDisplay:10.37,2013-01-06 19:26:00,
2013-01-06 12:31:00,27.4,14.1,30.37,NE,48,2.3,2.3,57,0.00,CLR,,0.00,WeatherDisplay:10.37,2013-01-06 19:31:00,
2013-01-06 12:36:00,27.5,13.0,30.37,SSW,202,3.5,3.5,54,0.00,CLR,,0.00,WeatherDisplay:10.37,2013-01-06 19:36:00,
2013-01-06 12:41:00,27.9,13.8,30.36,SSW,202,0.0,0.0,55,0.00,CLR,,0.00,WeatherDisplay:10.37,2013-01-06 19:41:00,
2013-01-06 12:46:00,28.4,14.7,30.36,SSW,202,0.0,0.0,56,0.00,CLR,,0.00,WeatherDisplay:10.37,2013-01-06 19:46:00,
2013-01-06 12:51:00,29.1,14.9,30.35,South,176,2.3,2.3,55,0.00,CLR,,0.00,WeatherDisplay:10.37,2013-01-06 19:51:00,
2013-01-06 12:56:00,29.9,15.3,30.34,SW,229,4.6,4.6,54,0.00,CLR,,0.00,WeatherDisplay:10.37,2013-01-06 19:56:00,
2013-01-06 13:01:00,30.6,15.9,30.34,SW,229,1.1,1.1,54,0.00,CLR,,0.00,WeatherDisplay:10.37,2013-01-06 20:01:00,
2013-01-06 13:07:00,31.2,14.7,30.34,SW,229,0.0,0.0,50,0.00,CLR,,0.00,WeatherDisplay:10.37,2013-01-06 20:07:00,
2013-01-06 13:11:00,31.9,15.3,30.34,SW,229,0.0,0.0,50,0.00,CLR,,0.00,WeatherDisplay:10.37,2013-01-06 20:11:00,
2013-01-06 13:13:00,32.1,14.6,30.34,SW,229,0.0,0.0,48,0.00,CLR,,0.00,WeatherDisplay:10.37,2013-01-06 20:13:00,
2013-01-06 13:18:00,32.8,12.7,30.33,SW,229,2.3,2.3,43,0.00,CLR,,0.00,WeatherDisplay:10.37,2013-01-06 20:18:00,
2013-01-06 13:23:00,33.4,14.3,30.33,NW,304,3.0,3.0,45,0.00,CLR,,0.00,WeatherDisplay:10.37,2013-01-06 20:23:00,
2013-01-06 13:28:00,33.6,15.5,30.33,North,355,2.3,0.0,47,0.00,CLR,,0.00,WeatherDisplay:10.37,2013-01-06 20:28:00,
2013-01-06 13:33:00,33.6,15.5,30.33,North,355,1.1,1.1,47,0.00,CLR,,0.00,WeatherDisplay:10.37,2013-01-06 20:33:00,
2013-01-06 13:38:00,33.6,16.0,30.33,North,355,1.1,1.1,48,0.00,CLR,,0.00,WeatherDisplay:10.37,2013-01-06 20:38:00,
2013-01-06 13:43:00,33.8,14.2,30.32,NW,310,1.1,1.1,44,0.00,CLR,,0.00,WeatherDisplay:10.37,2013-01-06 20:43:00,
2013-01-06 13:48:00,34.1,13.9,30.32,NW,309,3.5,3.5,43,0.00,CLR,,0.00,WeatherDisplay:10.37,2013-01-06 20:48:00,
2013-01-06 13:53:00,34.4,15.2,30.31,NE,35,2.3,2.3,45,0.00,CLR,,0.00,WeatherDisplay:10.37,2013-01-06 20:53:00,
2013-01-06 13:58:00,34.6,15.9,30.31,NE,36,0.0,0.0,46,0.00,CLR,,0.00,WeatherDisplay:10.37,2013-01-06 20:58:00,
2013-01-06 14:00:00,34.6,15.9,30.31,NE,36,0.0,0.4,46,0.00,CLR,,0.00,WeatherDisplay:10.37,2013-01-06 21:00:00,
2013-01-06 14:05:00,34.8,15.6,30.31,SW,231,2.0,2.0,45,0.00,CLR,,0.00,WeatherDisplay:10.37,2013-01-06 21:05:00,
2013-01-06 14:10:00,35.0,14.7,30.31,SSE,147,3.5,3.5,43,0.00,CLR,,0.00,WeatherDisplay:10.37,2013-01-06 21:10:00,
2013-01-06 14:15:00,35.2,15.4,30.31,SE,146,1.1,0.0,44,0.00,CLR,,0.00,WeatherDisplay:10.37,2013-01-06 21:15:00,
2013-01-06 14:20:00,35.4,15.1,30.32,SSW,207,0.0,0.1,43,0.00,CLR,,0.00,WeatherDisplay:10.37,2013-01-06 21:20:00,
2013-01-06 14:25:00,35.7,14.8,30.32,SSW,207,2.3,2.3,42,0.00,CLR,,0.00,WeatherDisplay:10.37,2013-01-06 21:25:00,
2013-01-06 14:30:00,35.8,13.8,30.32,SSW,207,0.0,0.0,40,0.00,CLR,,0.00,WeatherDisplay:10.37,2013-01-06 21:30:00,
2013-01-06 14:35:00,35.9,15.5,30.32,SSW,207,1.1,0.0,43,0.00,CLR,,0.00,WeatherDisplay:10.37,2013-01-06 21:35:00,
2013-01-06 14:40:00,36.0,15.1,30.31,SSW,207,0.0,0.0,42,0.00,CLR,,0.00,WeatherDisplay:10.37,2013-01-06 21:40:00,
2013-01-06 14:45:00,36.1,15.7,30.31,ESE,104,2.3,2.3,43,0.00,CLR,,0.00,WeatherDisplay:10.37,2013-01-06 21:45:00,
2013-01-06 14:50:00,36.1,14.6,30.31,East,101,0.0,0.0,41,0.00,CLR,,0.00,WeatherDisplay:10.37,2013-01-06 21:50:00,
2013-01-06 14:55:00,35.9,15.5,30.31,East,101,1.1,1.1,43,0.00,CLR,,0.00,WeatherDisplay:10.37,2013-01-06 21:55:00,
2013-01-06 15:00:00,35.7,14.8,30.31,East,101,0.0,0.0,42,0.00,CLR,,0.00,WeatherDisplay:10.37,2013-01-06 22:00:00,
2013-01-06 15:05:00,35.7,13.1,30.30,East,101,0.0,0.0,39,0.00,CLR,,0.00,WeatherDisplay:10.37,2013-01-06 22:05:00,
2013-01-06 15:10:00,35.7,13.7,30.30,East,101,0.0,0.0,40,0.00,CLR,,0.00,WeatherDisplay:10.37,2013-01-06 22:10:00,
2013-01-06 15:15:00,35.8,15.5,30.30,East,101,1.1,0.0,43,0.00,CLR,,0.00,WeatherDisplay:10.37,2013-01-06 22:15:00,
2013-01-06 15:20:00,35.9,16.6,30.30,East,101,0.0,0.0,45,0.00,CLR,,0.00,WeatherDisplay:10.37,2013-01-06 22:20:00,
2013-01-06 15:25:00,35.8,17.5,30.31,East,101,1.1,1.1,47,0.00,CLR,,0.00,WeatherDisplay:10.37,2013-01-06 22:25:00,
2013-01-06 15:30:00,35.8,17.5,30.31,ENE,57,2.3,2.3,47,0.00,CLR,,0.00,WeatherDisplay:10.37,2013-01-06 22:30:00,
2013-01-06 15:35:00,35.8,16.5,30.31,ENE,57,1.1,0.0,45,0.00,CLR,,0.00,WeatherDisplay:10.37,2013-01-06 22:35:00,
2013-01-06 15:40:00,35.8,15.5,30.30,ENE,57,0.0,0.0,43,0.00,CLR,,0.00,WeatherDisplay:10.37,2013-01-06 22:40:00,
2013-01-06 15:45:00,35.7,14.8,30.30,North,5,0.0,0.0,42,0.00,CLR,,0.00,WeatherDisplay:10.37,2013-01-06 22:45:00,
2013-01-06 15:50:00,35.6,16.3,30.30,ESE,112,1.1,1.1,45,0.00,CLR,,0.00,WeatherDisplay:10.37,2013-01-06 22:50:00,
2013-01-06 15:55:00,35.3,15.0,30.30,ESE,112,1.1,0.0,43,0.00,CLR,,0.00,WeatherDisplay:10.37,2013-01-06 22:55:00,
2013-01-06 16:00:00,35.1,14.8,30.30,ESE,112,1.1,1.1,43,0.00,CLR,,0.00,WeatherDisplay:10.37,2013-01-06 23:00:00,
2013-01-06 16:05:00,34.9,15.7,30.30,ESE,112,0.0,0.0,45,0.00,CLR,,0.00,WeatherDisplay:10.37,2013-01-06 23:05:00,
2013-01-06 16:10:00,34.7,15.5,30.30,ESE,112,0.0,0.0,45,0.00,CLR,,0.00,WeatherDisplay:10.37,2013-01-06 23:10:00,
2013-01-06 16:15:00,34.7,14.5,30.30,ESE,112,1.1,1.1,43,0.00,CLR,,0.00,WeatherDisplay:10.37,2013-01-06 23:15:00,
2013-01-06 16:20:00,34.6,14.4,30.31,ESE,112,0.0,0.0,43,0.00,CLR,,0.00,WeatherDisplay:10.37,2013-01-06 23:20:00,
2013-01-06 16:25:00,34.6,14.4,30.30,ESE,112,0.0,0.0,43,0.00,CLR,,0.00,WeatherDisplay:10.37,2013-01-06 23:25:00,
2013-01-06 16:30:00,34.5,14.8,30.30,ESE,112,0.0,0.0,44,0.00,CLR,,0.00,WeatherDisplay:10.37,2013-01-06 23:30:00,
2013-01-06 16:35:00,34.3,15.6,30.30,ESE,119,0.0,0.2,46,0.00,CLR,,0.00,WeatherDisplay:10.37,2013-01-06 23:35:00,
2013-01-06 16:40:00,34.2,15.5,30.30,ESE,119,0.0,0.3,46,0.00,CLR,,0.00,WeatherDisplay:10.37,2013-01-06 23:40:00,
2013-01-06 16:45:00,33.9,15.8,30.30,SE,142,1.1,1.2,47,0.00,CLR,,0.00,WeatherDisplay:10.37,2013-01-06 23:45:00,
2013-01-06 16:50:00,33.7,15.6,30.30,SE,144,1.1,0.0,47,0.00,CLR,,0.00,WeatherDisplay:10.37,2013-01-06 23:50:00,
2013-01-06 16:55:00,33.3,15.7,30.30,SE,144,1.0,1.0,48,0.00,CLR,,0.00,WeatherDisplay:10.37,2013-01-06 23:55:00,
2013-01-06 17:00:00,32.9,16.3,30.30,SE,144,1.1,1.1,50,0.00,CLR,,0.00,WeatherDisplay:10.37,2013-01-07 00:00:00,
2013-01-06 17:05:00,32.5,16.8,30.30,South,182,3.5,3.5,52,0.00,CLR,,0.00,WeatherDisplay:10.37,2013-01-07 00:05:00,
2013-01-06 17:10:00,32.1,16.9,30.30,South,182,1.1,1.1,53,0.00,CLR,,0.00,WeatherDisplay:10.37,2013-01-07 00:10:00,
2013-01-06 17:15:00,31.6,17.3,30.29,South,182,0.0,0.0,55,0.00,CLR,,0.00,WeatherDisplay:10.37,2013-01-07 00:15:00,
2013-01-06 17:20:00,31.1,17.2,30.29,South,182,2.3,2.3,56,0.00,CLR,,0.00,WeatherDisplay:10.37,2013-01-07 00:20:00,
2013-01-06 17:25:00,30.5,16.7,30.29,South,182,0.0,0.0,56,0.00,CLR,,0.00,WeatherDisplay:10.37,2013-01-07 00:25:00,
2013-01-06 17:30:00,30.0,16.6,30.29,South,182,1.1,0.0,57,0.00,CLR,,0.00,WeatherDisplay:10.37,2013-01-07 00:30:00,
2013-01-06 17:35:00,29.4,16.4,30.29,South,183,3.5,3.5,58,0.00,CLR,,0.00,WeatherDisplay:10.37,2013-01-07 00:35:00,
2013-01-06 17:40:00,28.8,15.9,30.29,South,184,2.3,2.3,58,0.00,CLR,,0.00,WeatherDisplay:10.37,2013-01-07 00:40:00,
2013-01-06 17:45:00,28.4,16.3,30.29,South,182,1.1,0.0,60,0.00,CLR,,0.00,WeatherDisplay:10.37,2013-01-07 00:45:00,
2013-01-06 17:51:00,27.9,15.8,30.29,South,190,1.1,1.1,60,0.00,CLR,,0.00,WeatherDisplay:10.37,2013-01-07 00:51:00,
2013-01-06 17:56:00,27.5,15.0,30.29,SSW,192,0.0,0.0,59,0.00,CLR,,0.00,WeatherDisplay:10.37,2013-01-07 00:56:00,
2013-01-06 18:01:00,27.2,15.1,30.30,SSW,192,0.0,0.0,60,0.00,CLR,,0.00,WeatherDisplay:10.37,2013-01-07 01:01:00,
2013-01-06 18:06:00,26.9,15.2,30.30,SSW,192,0.0,0.0,61,0.00,CLR,,0.00,WeatherDisplay:10.37,2013-01-07 01:06:00,
2013-01-06 18:11:00,26.5,14.9,30.30,SSW,192,0.0,0.0,61,0.00,CLR,,0.00,WeatherDisplay:10.37,2013-01-07 01:11:00,
2013-01-06 18:16:00,26.2,15.3,30.30,SSW,192,0.0,0.0,63,0.00,CLR,,0.00,WeatherDisplay:10.37,2013-01-07 01:16:00,
2013-01-06 18:21:00,25.8,14.9,30.30,SSW,192,0.0,0.0,63,0.00,CLR,,0.00,WeatherDisplay:10.37,2013-01-07 01:21:00,
2013-01-06 18:26:00,25.5,15.0,30.30,SSW,192,0.0,0.0,64,0.00,CLR,,0.00,WeatherDisplay:10.37,2013-01-07 01:26:00,
2013-01-06 18:31:00,25.2,14.7,30.30,SSW,192,0.0,0.0,64,0.00,CLR,,0.00,WeatherDisplay:10.37,2013-01-07 01:31:00,
2013-01-06 18:36:00,25.1,14.6,30.30,SSW,192,0.0,0.0,64,0.00,CLR,,0.00,WeatherDisplay:10.37,2013-01-07 01:36:00,
2013-01-06 18:41:00,24.8,14.7,30.30,SSW,192,0.0,0.0,65,0.00,CLR,,0.00,WeatherDisplay:10.37,2013-01-07 01:41:00,
2013-01-06 18:46:00,24.5,14.1,30.30,SSW,192,0.0,0.0,64,0.00,CLR,,0.00,WeatherDisplay:10.37,2013-01-07 01:46:00,
2013-01-06 18:51:00,24.3,13.9,30.30,SSW,192,0.0,0.0,64,0.00,CLR,,0.00,WeatherDisplay:10.37,2013-01-07 01:51:00,
2013-01-06 18:56:00,24.2,14.5,30.31,SSW,192,0.0,0.0,66,0.00,CLR,,0.00,WeatherDisplay:10.37,2013-01-07 01:56:00,
2013-01-06 19:01:00,24.0,14.3,30.31,SSW,192,0.0,0.0,66,0.00,CLR,,0.00,WeatherDisplay:10.37,2013-01-07 02:01:00,
2013-01-06 19:06:00,23.8,13.7,30.31,SSW,192,0.0,0.0,65,0.00,CLR,,0.00,WeatherDisplay:10.37,2013-01-07 02:06:00,
2013-01-06 19:11:00,23.6,14.2,30.31,SSW,192,0.0,0.0,67,0.00,CLR,,0.00,WeatherDisplay:10.37,2013-01-07 02:11:00,
2013-01-06 19:16:00,23.5,14.1,30.31,SSW,192,1.1,1.1,67,0.00,CLR,,0.00,WeatherDisplay:10.37,2013-01-07 02:16:00,
2013-01-06 19:21:00,23.3,14.3,30.32,SSW,194,1.1,1.1,68,0.00,CLR,,0.00,WeatherDisplay:10.37,2013-01-07 02:21:00,
2013-01-06 19:26:00,23.2,13.9,30.32,SSW,194,0.0,0.0,67,0.00,CLR,,0.00,WeatherDisplay:10.37,2013-01-07 02:26:00,
2013-01-06 19:31:00,23.2,13.9,30.32,SSW,194,0.0,0.0,67,0.00,CLR,,0.00,WeatherDisplay:10.37,2013-01-07 02:31:00,
2013-01-06 19:36:00,23.1,13.8,30.32,SSW,194,0.0,0.0,67,0.00,CLR,,0.00,WeatherDisplay:10.37,2013-01-07 02:36:00,
2013-01-06 19:41:00,23.0,14.0,30.32,SSW,194,0.0,0.0,68,0.00,CLR,,0.00,WeatherDisplay:10.37,2013-01-07 02:41:00,
2013-01-06 19:46:00,22.9,13.9,30.32,SSW,194,0.0,0.0,68,0.00,CLR,,0.00,WeatherDisplay:10.37,2013-01-07 02:46:00,
2013-01-06 19:51:00,22.7,14.1,30.32,SSW,194,0.0,0.0,69,0.00,CLR,,0.00,WeatherDisplay:10.37,2013-01-07 02:51:00,
2013-01-06 19:56:00,22.4,13.8,30.32,SSW,194,0.0,0.0,69,0.00,CLR,,0.00,WeatherDisplay:10.37,2013-01-07 02:56:00,
2013-01-06 20:01:00,22.1,13.5,30.32,SSW,194,0.0,0.0,69,0.00,CLR,,0.00,WeatherDisplay:10.37,2013-01-07 03:01:00,
2013-01-06 20:06:00,21.8,13.5,30.31,SSW,194,0.0,0.0,70,0.00,CLR,,0.00,WeatherDisplay:10.37,2013-01-07 03:06:00,
2013-01-06 20:11:00,21.5,13.2,30.32,SSW,194,0.0,0.0,70,0.00,CLR,,0.00,WeatherDisplay:10.37,2013-01-07 03:11:00,
2013-01-06 20:16:00,21.2,13.3,30.32,SSW,194,0.0,0.0,71,0.00,CLR,,0.00,WeatherDisplay:10.37,2013-01-07 03:16:00,
2013-01-06 20:21:00,20.9,13.0,30.32,SSW,194,0.0,0.0,71,0.00,CLR,,0.00,WeatherDisplay:10.37,2013-01-07 03:21:00,
2013-01-06 20:26:00,20.6,12.7,30.33,SSW,194,0.0,0.0,71,0.00,CLR,,0.00,WeatherDisplay:10.37,2013-01-07 03:26:00,
2013-01-06 20:31:00,20.4,12.8,30.32,SSW,194,0.0,0.0,72,0.00,CLR,,0.00,WeatherDisplay:10.37,2013-01-07 03:31:00,
2013-01-06 20:36:00,20.1,12.5,30.33,SSW,194,0.0,0.0,72,0.00,CLR,,0.00,WeatherDisplay:10.37,2013-01-07 03:36:00,
2013-01-06 20:41:00,19.9,12.3,30.33,SSW,194,0.0,0.0,72,0.00,CLR,,0.00,WeatherDisplay:10.37,2013-01-07 03:41:00,
2013-01-06 20:46:00,19.6,12.3,30.33,SSW,194,0.0,0.0,73,0.00,CLR,,0.00,WeatherDisplay:10.37,2013-01-07 03:46:00,
2013-01-06 20:51:00,19.3,12.1,30.33,SSW,194,0.0,0.0,73,0.00,CLR,,0.00,WeatherDisplay:10.37,2013-01-07 03:51:00,
2013-01-06 20:56:00,19.0,12.1,30.33,SSW,194,0.0,0.0,74,0.00,CLR,,0.00,WeatherDisplay:10.37,2013-01-07 03:56:00,
2013-01-06 21:01:00,18.8,12.2,30.33,SSW,194,0.0,0.0,75,0.00,CLR,,0.00,WeatherDisplay:10.37,2013-01-07 04:01:00,
2013-01-06 21:06:00,18.6,12.0,30.33,SSW,194,0.0,0.0,75,0.00,CLR,,0.00,WeatherDisplay:10.37,2013-01-07 04:06:00,
2013-01-06 21:11:00,18.5,11.9,30.34,SSW,194,0.0,0.0,75,0.00,CLR,,0.00,WeatherDisplay:10.37,2013-01-07 04:11:00,
2013-01-06 21:16:00,18.2,11.6,30.33,SSW,194,0.0,0.0,75,0.00,CLR,,0.00,WeatherDisplay:10.37,2013-01-07 04:16:00,
2013-01-06 21:21:00,17.9,11.3,30.34,SSW,194,0.0,0.0,75,0.00,CLR,,0.00,WeatherDisplay:10.37,2013-01-07 04:21:00,
2013-01-06 21:26:00,17.7,11.1,30.33,SSW,194,0.0,0.0,75,0.00,CLR,,0.00,WeatherDisplay:10.37,2013-01-07 04:26:00,
2013-01-06 21:31:00,17.3,11.0,30.33,SSW,194,0.0,0.0,76,0.00,CLR,,0.00,WeatherDisplay:10.37,2013-01-07 04:31:00,
2013-01-06 21:36:00,17.0,10.7,30.33,SSW,194,1.0,0.0,76,0.00,CLR,,0.00,WeatherDisplay:10.37,2013-01-07 04:36:00,
2013-01-06 21:41:00,16.7,10.4,30.33,SSW,194,0.0,0.0,76,0.00,CLR,,0.00,WeatherDisplay:10.37,2013-01-07 04:41:00,
2013-01-06 21:46:00,16.5,10.5,30.33,SSW,194,0.0,0.0,77,0.00,CLR,,0.00,WeatherDisplay:10.37,2013-01-07 04:46:00,
2013-01-06 21:51:00,16.2,10.0,30.33,SSW,194,0.0,0.0,76,0.00,CLR,,0.00,WeatherDisplay:10.37,2013-01-07 04:51:00,
2013-01-06 21:56:00,16.0,10.1,30.34,SSW,194,0.0,0.0,77,0.00,CLR,,0.00,WeatherDisplay:10.37,2013-01-07 04:56:00,
2013-01-06 22:00:00,15.8,9.9,30.34,SSW,194,0.0,0.0,77,0.00,CLR,,0.00,WeatherDisplay:10.37,2013-01-07 05:00:00,
2013-01-06 22:02:00,15.7,10.1,30.34,SSW,194,0.0,0.0,78,0.00,CLR,,0.00,WeatherDisplay:10.37,2013-01-07 05:02:00,
2013-01-06 22:07:00,15.4,9.8,30.34,SSW,194,0.0,0.0,78,0.00,CLR,,0.00,WeatherDisplay:10.37,2013-01-07 05:07:00,
2013-01-06 22:12:00,15.0,9.4,30.34,SSW,194,0.0,0.0,78,0.00,CLR,,0.00,WeatherDisplay:10.37,2013-01-07 05:12:00,
2013-01-06 22:17:00,14.7,9.4,30.35,SSW,194,0.0,0.0,79,0.00,CLR,,0.00,WeatherDisplay:10.37,2013-01-07 05:17:00,
2013-01-06 22:22:00,14.4,9.1,30.35,SSW,194,0.0,0.0,79,0.00,CLR,,0.00,WeatherDisplay:10.37,2013-01-07 05:22:00,
2013-01-06 22:27:00,13.9,8.6,30.35,SSW,194,0.0,0.0,79,0.00,CLR,,0.00,WeatherDisplay:10.37,2013-01-07 05:27:00,
2013-01-06 22:32:00,13.5,8.5,30.35,South,171,2.3,2.3,80,0.00,CLR,,0.00,WeatherDisplay:10.37,2013-01-07 05:32:00,
2013-01-06 22:37:00,13.4,8.4,30.35,South,182,2.3,2.3,80,0.00,CLR,,0.00,WeatherDisplay:10.37,2013-01-07 05:37:00,
2013-01-06 22:42:00,13.3,8.6,30.35,South,190,1.1,1.1,81,0.00,CLR,,0.00,WeatherDisplay:10.37,2013-01-07 05:42:00,
2013-01-06 22:47:00,13.3,8.8,30.35,South,190,3.5,3.5,82,0.00,CLR,,0.00,WeatherDisplay:10.37,2013-01-07 05:47:00,
2013-01-06 22:52:00,13.3,8.8,30.35,SSW,192,1.1,1.1,82,0.00,CLR,,0.00,WeatherDisplay:10.37,2013-01-07 05:52:00,
2013-01-06 22:57:00,13.4,8.7,30.35,SW,220,1.1,0.0,81,0.00,CLR,,0.00,WeatherDisplay:10.37,2013-01-07 05:57:00,
2013-01-06 23:02:00,13.2,8.2,30.35,SW,220,0.0,0.0,80,0.00,CLR,,0.00,WeatherDisplay:10.37,2013-01-07 06:02:00,
2013-01-06 23:07:00,13.1,7.8,30.35,SW,220,0.0,0.0,79,0.00,CLR,,0.00,WeatherDisplay:10.37,2013-01-07 06:07:00,
2013-01-06 23:12:00,12.9,7.6,30.35,SW,220,0.0,0.0,79,0.00,CLR,,0.00,WeatherDisplay:10.37,2013-01-07 06:12:00,
2013-01-06 23:17:00,12.6,7.6,30.35,SW,220,0.0,0.0,80,0.00,CLR,,0.00,WeatherDisplay:10.37,2013-01-07 06:17:00,
2013-01-06 23:22:00,12.3,7.3,30.36,SW,220,0.0,0.0,80,0.00,CLR,,0.00,WeatherDisplay:10.37,2013-01-07 06:22:00,
2013-01-06 23:27:00,12.1,7.4,30.36,SW,220,0.0,0.0,81,0.00,CLR,,0.00,WeatherDisplay:10.37,2013-01-07 06:27:00,
2013-01-06 23:32:00,11.9,7.2,30.36,SW,220,0.0,0.0,81,0.00,CLR,,0.00,WeatherDisplay:10.37,2013-01-07 06:32:00,
2013-01-06 23:37:00,11.7,7.0,30.36,SW,220,0.0,0.0,81,0.00,CLR,,0.00,WeatherDisplay:10.37,2013-01-07 06:37:00,
2013-01-06 23:42:00,11.6,7.2,30.36,SW,220,0.0,0.0,82,0.00,CLR,,0.00,WeatherDisplay:10.37,2013-01-07 06:42:00,
2013-01-06 23:47:00,11.5,7.1,30.36,SW,220,0.0,0.0,82,0.00,CLR,,0.00,WeatherDisplay:10.37,2013-01-07 06:47:00,
2013-01-06 23:52:00,11.4,7.2,30.36,SW,217,2.0,2.0,83,0.00,CLR,,0.00,WeatherDisplay:10.37,2013-01-07 06:52:00,
2013-01-06 23:57:00,11.5,7.3,30.35,SSW,209,1.1,1.1,83,0.00,CLR,,0.00,WeatherDisplay:10.37,2013-01-07 06:57:00,